GW4434 Weather Reports


Display with metric or nautical units.
time (UTC)temp
F
wind
direction
speed
MPH
gust
MPH
rain 1hr
in
rain 24hr
in
rain mn
in
humidity
%
barometer
mb
20260906082855 69 172 0.0 0.0 0.00 0.00 0.00 86 1013.1
20260906082350 69 172 0.0 0.0 0.00 0.00 0.00 86 1013.2
20260906081846 69 172 0.0 0.0 0.00 0.00 0.00 86 1013.3
20260906081342 70 173 0.0 0.0 0.00 0.00 0.00 86 1013.1
20260906080837 70 173 0.0 0.0 0.00 0.00 0.00 86 1013.3
20260906080334 70 173 0.0 0.0 0.00 0.00 0.00 86 1013.0
20260906075828 70 172 0.0 0.0 0.00 0.00 0.00 86 1013.0
20260906075327 70 172 0.0 0.0 0.00 0.00 0.00 86 1013.1
20260906074823 70 172 0.0 0.0 0.00 0.00 0.00 86 1013.3
20260906074323 70 172 0.0 0.0 0.00 0.00 0.00 86 1013.0
20260906073821 70 172 0.0 0.0 0.00 0.00 0.00 86 1013.0
20260906073316 70 173 0.0 0.0 0.00 0.00 0.00 86 1013.0
20260906072813 70 172 0.0 0.0 0.00 0.00 0.00 86 1013.1
20260906072308 70 164 0.0 0.0 0.00 0.00 0.00 86 1013.1
20260906071804 70 174 0.0 0.0 0.00 0.00 0.00 86 1013.0
20260906071304 70 174 0.0 0.0 0.00 0.00 0.00 86 1013.0
20260906070800 70 174 0.0 0.0 0.00 0.00 0.00 86 1013.1
20260906070256 71 174 0.0 0.0 0.00 0.00 0.00 86 1013.1
20260906065750 70 174 0.0 0.0 0.00 0.00 0.00 86 1013.3
20260906065246 70 174 0.0 0.0 0.00 0.00 0.00 86 1013.2
20260906064741 70 174 0.0 0.0 0.00 0.00 0.00 86 1013.2
20260906064237 71 174 0.0 0.0 0.00 0.00 0.00 86 1013.1
20260906063732 71 174 0.0 0.0 0.00 0.00 0.00 86 1013.0
20260906063227 71 174 0.0 0.0 0.00 0.00 0.00 86 1013.0
20260906062722 71 174 0.0 0.0 0.00 0.00 0.00 86 1013.2
20260906062221 71 174 0.0 0.0 0.00 0.00 0.00 86 1013.5
20260906061718 71 174 0.0 0.0 0.00 0.00 0.00 85 1013.2
20260906061214 71 174 0.0 0.0 0.00 0.00 0.00 85 1013.3
20260906060709 71 174 0.0 0.0 0.00 0.00 0.00 85 1013.6
20260906060206 71 174 0.0 0.0 0.00 0.00 0.00 85 1013.6
20260906055702 71 174 0.0 0.0 0.00 0.00 0.00 86 1013.7
20260906055156 71 174 0.0 0.0 0.00 0.00 0.00 85 1013.9
20260906054652 71 174 0.0 0.0 0.00 0.00 0.00 85 1013.8
20260906054151 71 174 0.0 0.0 0.00 0.00 0.00 85 1013.8
20260906053648 71 174 0.0 0.0 0.00 0.00 0.00 85 1013.9
20260906053144 71 174 0.0 0.0 0.00 0.00 0.00 86 1014.1
20260906052639 71 174 0.0 0.0 0.00 0.00 0.00 86 1014.0
20260906052136 71 173 0.0 0.0 0.00 0.00 0.00 85 1014.2
20260906051632 71 173 0.0 0.0 0.00 0.00 0.00 86 1014.0
20260906051131 71 173 0.0 0.0 0.00 0.00 0.00 85 1014.2
20260906050627 71 173 0.0 0.0 0.00 0.00 0.00 85 1014.3
20260906050122 71 174 0.0 0.0 0.00 0.00 0.00 85 1014.4
20260906045620 71 173 0.0 0.0 0.00 0.00 0.00 85 1014.3
20260906045115 71 173 0.0 0.0 0.00 0.00 0.00 85 1014.5
20260906044611 71 173 0.0 0.0 0.00 0.00 0.00 85 1014.5
20260906044106 72 173 0.0 0.0 0.00 0.00 0.00 85 1014.4
20260906043603 71 167 0.0 0.0 0.00 0.00 0.00 85 1014.5
20260906043058 72 150 0.0 0.0 0.00 0.00 0.00 85 1014.5
20260906042557 71 178 0.0 0.0 0.00 0.00 0.00 85 1014.6
20260906042052 72 178 0.0 0.0 0.00 0.00 0.00 85 1014.5
20260906041548 72 175 0.0 0.0 0.00 0.00 0.00 84 1014.5
20260906041043 72 175 0.0 0.0 0.00 0.00 0.00 84 1014.5
20260906040537 72 175 0.0 0.0 0.00 0.00 0.00 84 1014.5
20260906040028 72 154 0.0 0.0 0.00 0.00 0.00 84 1014.4
20260906035522 72 154 0.0 0.0 0.00 0.00 0.00 84 1014.6
20260906035013 72 154 0.0 0.0 0.00 0.00 0.00 83 1014.7
20260906034512 72 154 0.0 0.0 0.00 0.00 0.00 83 1014.7
20260906034007 72 153 0.0 0.0 0.00 0.00 0.00 83 1014.8
20260906033501 73 155 0.0 0.0 0.00 0.00 0.00 83 1014.3
20260906032958 73 155 0.0 0.0 0.00 0.00 0.00 83 1014.5
20260906032454 73 155 0.0 0.0 0.00 0.00 0.00 83 1014.4
20260906031954 73 153 0.0 0.0 0.00 0.00 0.00 83 1014.3
20260906031450 73 152 0.0 0.0 0.00 0.00 0.00 82 1014.4
20260906030945 73 159 0.0 0.0 0.00 0.00 0.00 82 1014.4
20260906030439 73 159 0.0 0.0 0.00 0.00 0.00 82 1014.5
20260906025934 73 159 0.0 0.0 0.00 0.00 0.00 82 1014.5
20260906025428 73 159 0.0 0.0 0.00 0.00 0.00 82 1014.6
20260906024927 73 158 0.0 0.0 0.00 0.00 0.00 82 1014.6
20260906024426 73 158 0.0 0.0 0.00 0.00 0.00 82 1014.7
20260906023921 73 158 0.0 0.0 0.00 0.00 0.00 81 1014.6
20260906023418 73 158 0.0 0.0 0.00 0.00 0.00 81 1014.5
20260906022918 74 158 0.0 0.0 0.00 0.00 0.00 81 1014.5
20260906022413 74 169 0.0 0.0 0.00 0.00 0.00 81 1014.5
20260906021908 74 179 0.0 0.0 0.00 0.00 0.00 81 1014.6
20260906021403 74 180 0.0 0.0 0.00 0.00 0.00 80 1014.2
20260906020857 74 177 0.0 0.0 0.00 0.00 0.00 80 1014.3
20260906020356 74 177 0.0 0.0 0.00 0.00 0.00 80 1014.5
20260906015851 74 177 0.0 0.0 0.00 0.00 0.00 80 1014.4
20260906015350 74 177 0.0 0.0 0.00 0.00 0.00 80 1014.2
20260906014844 74 177 0.0 0.0 0.00 0.00 0.00 80 1014.2
20260906014339 75 177 0.0 0.0 0.00 0.00 0.00 79 1014.1
20260906013835 75 177 0.0 0.0 0.00 0.00 0.00 79 1014.1
20260906013331 75 177 0.0 0.0 0.00 0.00 0.00 79 1014.1
20260906012826 75 173 0.0 0.0 0.00 0.00 0.00 78 1014.2
20260906012321 75 173 0.0 0.0 0.00 0.00 0.00 78 1014.0
20260906011816 75 172 0.0 0.0 0.00 0.00 0.00 78 1014.0
20260906011316 75 171 0.0 0.0 0.00 0.00 0.00 77 1013.7
20260906010812 75 171 0.0 0.0 0.00 0.00 0.00 77 1013.7
20260906010308 76 176 0.0 0.0 0.00 0.00 0.00 77 1014.0
20260906005803 76 168 0.0 0.0 0.00 0.00 0.00 77 1013.6
20260906005301 76 159 0.0 1.0 0.00 0.00 0.00 76 1013.8
20260906004801 76 160 0.0 0.0 0.00 0.00 0.00 76 1013.5
20260906004256 77 160 0.0 0.0 0.00 0.00 0.00 76 1013.7
20260906003756 77 160 0.0 0.0 0.00 0.00 0.00 75 1013.6
20260906003251 77 160 0.0 0.0 0.00 0.00 0.00 75 1013.8
20260906002746 77 160 0.0 0.0 0.00 0.00 0.00 74 1013.8
20260906002246 77 159 0.0 0.0 0.00 0.00 0.00 74 1013.9
20260906001742 78 162 0.0 0.0 0.00 0.00 0.00 73 1014.1
20260906001236 78 176 0.0 0.0 0.00 0.00 0.00 73 1013.9
20260906000732 78 167 0.0 0.0 0.00 0.00 0.00 72 1014.0
20260906000226 78 167 0.0 0.0 0.00 0.00 0.00 72 1014.0
20260905235721 79 167 0.0 0.0 0.00 0.00 0.00 71 1013.8
20260905235215 79 167 0.0 0.0 0.00 0.00 0.00 71 1013.8
20260905234711 79 173 0.0 0.0 0.00 0.00 0.00 71 1014.0
20260905234206 80 174 0.0 0.0 0.00 0.00 0.00 70 1014.1
20260905233701 80 173 0.0 0.0 0.00 0.00 0.00 71 1013.8
20260905233200 80 173 0.0 0.0 0.00 0.00 0.00 70 1013.6
20260905232655 80 173 0.0 0.0 0.00 0.00 0.00 71 1013.7
20260905232151 80 174 0.0 0.0 0.00 0.00 0.00 71 1013.2
20260905231647 80 175 0.0 0.0 0.00 0.00 0.00 70 1013.2
20260905231143 80 174 0.0 0.0 0.00 0.00 0.00 70 1013.2
20260905230633 80 173 0.0 0.0 0.00 0.00 0.00 71 1013.2
20260905230131 80 181 0.0 0.0 0.00 0.00 0.00 69 1013.3
20260905225630 80 181 0.0 0.0 0.00 0.00 0.00 70 1013.3
20260905225120 80 189 0.0 1.0 0.00 0.00 0.00 70 1013.0
20260905224620 80 199 1.0 1.0 0.00 0.00 0.00 69 1013.1
20260905224119 81 182 0.0 0.0 0.00 0.00 0.00 71 1013.1
20260905223616 80 186 0.0 0.0 0.00 0.00 0.00 70 1013.1
20260905223113 81 194 1.0 1.0 0.00 0.00 0.00 70 1013.2
20260905222612 80 182 0.0 0.0 0.00 0.00 0.00 70 1013.2
20260905222107 80 177 0.0 0.0 0.00 0.00 0.00 70 1013.4
20260905221603 80 184 0.0 1.0 0.00 0.00 0.00 69 1013.3
20260905221059 79 177 1.0 1.0 0.00 0.00 0.00 69 1013.2
20260905220554 79 182 0.0 0.0 0.00 0.00 0.00 68 1013.2
20260905220051 80 163 0.0 0.0 0.00 0.00 0.00 69 1013.2
20260905215550 80 184 0.0 0.0 0.00 0.00 0.00 67 1013.3
20260905215046 82 176 0.0 0.0 0.00 0.00 0.00 62 1013.0
20260905214542 82 172 0.0 0.0 0.00 0.00 0.00 58 1013.0
20260905214037 83 172 0.0 0.0 0.00 0.00 0.00 56 1012.7
20260905213532 84 171 0.0 0.0 0.00 0.00 0.00 54 1012.6
20260905213027 84 167 0.0 0.0 0.00 0.00 0.00 52 1012.6
20260905212522 85 167 0.0 0.0 0.00 0.00 0.00 52 1012.8
20260905212021 85 177 0.0 0.0 0.00 0.00 0.00 52 1013.0
20260905211517 86 168 0.0 0.0 0.00 0.00 0.00 47 1013.0
20260905211013 86 160 0.0 1.0 0.00 0.00 0.00 46 1012.6
20260905210508 86 161 0.0 1.0 0.00 0.00 0.00 45 1012.4
20260905210009 86 150 0.0 1.0 0.00 0.00 0.00 47 1012.3
20260905205508 87 159 1.0 1.0 0.00 0.00 0.00 49 1012.7
20260905205007 87 103 1.0 2.0 0.00 0.00 0.00 53 1013.4
20260905204503 88 166 1.0 1.0 0.00 0.00 0.00 52 1013.2
20260905204002 89 92 1.0 3.0 0.00 0.00 0.00 51 1012.8
20260905203458 90 180 1.0 1.0 0.00 0.00 0.00 49 1012.8
20260905202953 91 5 2.0 3.0 0.00 0.00 0.00 48 1012.8
20260905202448 94 339 2.0 6.0 0.00 0.00 0.00 48 1012.4
20260905201943 95 172 0.0 0.0 0.00 0.00 0.00 49 1012.0
20260905201438 95 171 0.0 0.0 0.00 0.00 0.00 54 1012.3
20260905200932 96 171 0.0 0.0 0.00 0.00 0.00 48 1012.4
20260905200428 95 171 0.0 0.0 0.00 0.00 0.00 47 1012.5
20260905195926 95 175 0.0 0.0 0.00 0.00 0.00 51 1012.6
20260905195417 95 162 0.0 0.0 0.00 0.00 0.00 48 1012.4
20260905194912 95 162 0.0 0.0 0.00 0.00 0.00 48 1012.2
20260905194412 96 162 0.0 0.0 0.00 0.00 0.00 48 1012.2
20260905193911 96 160 0.0 0.0 0.00 0.00 0.00 46 1012.3
20260905193406 97 165 0.0 0.0 0.00 0.00 0.00 44 1012.2
20260905192901 98 157 0.0 1.0 0.00 0.00 0.00 42 1012.2
20260905192357 99 184 0.0 1.0 0.00 0.00 0.00 40 1012.2
20260905191857 100 161 0.0 1.0 0.00 0.00 0.00 39 1012.1
20260905191356 99 187 1.0 1.0 0.00 0.00 0.00 39 1012.4
20260905190855 99 176 0.0 1.0 0.00 0.00 0.00 41 1012.2
20260905190348 99 183 1.0 1.0 0.00 0.00 0.00 40 1012.4
20260905185848 99 177 0.0 0.0 0.00 0.00 0.00 42 1012.4
20260905185343 98 195 1.0 2.0 0.00 0.00 0.00 43 1012.4
20260905184842 99 175 0.0 1.0 0.00 0.00 0.00 42 1012.4
20260905184341 99 190 0.0 1.0 0.00 0.00 0.00 42 1012.7
20260905183839 99 190 0.0 0.0 0.00 0.00 0.00 41 1012.7
20260905183335 99 165 0.0 1.0 0.00 0.00 0.00 40 1012.7
20260905182829 97 170 0.0 1.0 0.00 0.00 0.00 43 1012.8
20260905182324 97 177 0.0 0.0 0.00 0.00 0.00 48 1013.1
20260905181819 97 185 0.0 0.0 0.00 0.00 0.00 49 1013.2
20260905181319 98 177 0.0 1.0 0.00 0.00 0.00 43 1013.3
20260905180818 99 175 1.0 1.0 0.00 0.00 0.00 43 1013.6
20260905180313 98 181 0.0 0.0 0.00 0.00 0.00 44 1013.6
20260905175808 97 181 0.0 1.0 0.00 0.00 0.00 45 1013.7
20260905175306 99 217 1.0 1.0 0.00 0.00 0.00 44 1013.7
20260905174758 99 183 0.0 0.0 0.00 0.00 0.00 42 1013.8
20260905174254 101 183 0.0 0.0 0.00 0.00 0.00 41 1013.9
20260905173749 100 187 0.0 0.0 0.00 0.00 0.00 41 1013.8
20260905173245 99 178 0.0 1.0 0.00 0.00 0.00 43 1013.9
20260905172744 98 84 2.0 2.0 0.00 0.00 0.00 42 1014.0
20260905172243 98 51 2.0 2.0 0.00 0.00 0.00 42 1014.0
20260905171740 99 196 0.0 1.0 0.00 0.00 0.00 43 1014.1
20260905171236 98 193 0.0 1.0 0.00 0.00 0.00 44 1014.3
20260905170732 98 183 0.0 0.0 0.00 0.00 0.00 44 1014.3
20260905170228 97 169 0.0 1.0 0.00 0.00 0.00 45 1014.3
20260905165727 96 169 0.0 1.0 0.00 0.00 0.00 46 1014.6
20260905165222 96 197 1.0 2.0 0.00 0.00 0.00 47 1014.7
20260905164722 96 166 1.0 1.0 0.00 0.00 0.00 47 1014.8
20260905164217 96 161 0.0 1.0 0.00 0.00 0.00 47 1015.1
20260905163713 95 195 1.0 1.0 0.00 0.00 0.00 48 1014.9
20260905163209 95 185 1.0 1.0 0.00 0.00 0.00 48 1015.1
20260905162705 94 196 1.0 1.0 0.00 0.00 0.00 48 1015.0
20260905162204 94 189 1.0 1.0 0.00 0.00 0.00 49 1015.3
20260905161700 94 258 1.0 2.0 0.00 0.00 0.00 48 1015.3
20260905161157 94 209 1.0 1.0 0.00 0.00 0.00 50 1015.2
20260905160656 93 180 0.0 1.0 0.00 0.00 0.00 52 1015.2
20260905160156 93 179 0.0 1.0 0.00 0.00 0.00 53 1015.3
20260905155656 93 201 1.0 1.0 0.00 0.00 0.00 54 1015.3
20260905155155 92 186 0.0 0.0 0.00 0.00 0.00 53 1015.4
20260905154649 92 179 1.0 1.0 0.00 0.00 0.00 54 1015.4
20260905154140 92 201 1.0 2.0 0.00 0.00 0.00 54 1015.5
20260905153635 91 179 0.0 0.0 0.00 0.00 0.00 58 1015.5
20260905153131 91 182 0.0 1.0 0.00 0.00 0.00 57 1015.6
20260905152626 91 186 0.0 1.0 0.00 0.00 0.00 59 1015.5
20260905152120 90 196 1.0 1.0 0.00 0.00 0.00 61 1015.6
20260905151615 89 183 0.0 1.0 0.00 0.00 0.00 61 1015.5
20260905151111 89 174 0.0 0.0 0.00 0.00 0.00 61 1015.5
20260905150606 89 173 0.0 1.0 0.00 0.00 0.00 62 1015.6
20260905145557 88 170 0.0 1.0 0.00 0.00 0.00 65 1015.8
20260905145056 88 158 0.0 1.0 0.00 0.00 0.00 64 1016.0
20260905144551 87 175 0.0 0.0 0.00 0.00 0.00 64 1015.9
20260905144049 87 183 0.0 0.0 0.00 0.00 0.00 67 1016.0
20260905143544 86 180 0.0 0.0 0.00 0.00 0.00 68 1016.1
20260905143039 86 188 0.0 0.0 0.00 0.00 0.00 69 1016.1
20260905142538 85 188 0.0 1.0 0.00 0.00 0.00 67 1016.1
20260905142032 85 192 0.0 1.0 0.00 0.00 0.00 71 1016.1
20260905141527 85 186 0.0 0.0 0.00 0.00 0.00 70 1016.1
20260905141023 84 185 0.0 0.0 0.00 0.00 0.00 71 1016.1
20260905140518 84 186 0.0 0.0 0.00 0.00 0.00 73 1016.1
20260905140017 84 186 0.0 0.0 0.00 0.00 0.00 72 1016.1
20260905135513 83 184 0.0 0.0 0.00 0.00 0.00 74 1016.0
20260905135008 82 180 0.0 0.0 0.00 0.00 0.00 77 1016.0
20260905134508 82 180 0.0 0.0 0.00 0.00 0.00 78 1016.1
20260905134007 82 180 0.0 0.0 0.00 0.00 0.00 78 1016.1
20260905133502 81 180 0.0 0.0 0.00 0.00 0.00 79 1016.2
20260905133001 81 182 0.0 0.0 0.00 0.00 0.00 80 1016.0
20260905132456 80 182 0.0 0.0 0.00 0.00 0.00 80 1016.2
20260905131951 80 181 0.0 0.0 0.00 0.00 0.00 81 1016.2
20260905131448 79 181 0.0 0.0 0.00 0.00 0.00 81 1016.1
20260905130948 79 180 0.0 0.0 0.00 0.00 0.00 83 1016.2
20260905130441 78 181 0.0 0.0 0.00 0.00 0.00 84 1016.3
20260905125936 78 185 0.0 0.0 0.00 0.00 0.00 84 1016.2
20260905125430 78 162 0.0 0.0 0.00 0.00 0.00 85 1016.2
20260905124926 77 162 0.0 0.0 0.00 0.00 0.00 85 1016.4
20260905124423 77 162 0.0 0.0 0.00 0.00 0.00 85 1016.2
20260905123922 76 162 0.0 0.0 0.00 0.00 0.00 85 1016.1
20260905123419 76 162 0.0 0.0 0.00 0.00 0.00 85 1016.1
20260905122914 76 162 0.0 0.0 0.00 0.00 0.00 86 1016.2
20260905122413 75 162 0.0 0.0 0.00 0.00 0.00 86 1016.1
20260905121910 75 162 0.0 0.0 0.00 0.00 0.00 85 1016.0
20260905121405 75 162 0.0 0.0 0.00 0.00 0.00 86 1016.3
20260905120903 75 162 0.0 0.0 0.00 0.00 0.00 85 1016.0
20260905120358 75 162 0.0 0.0 0.00 0.00 0.00 85 1016.1
20260905115853 75 162 0.0 0.0 0.00 0.00 0.00 85 1015.9
20260905115352 75 162 0.0 0.0 0.00 0.00 0.00 85 1016.0
20260905114847 74 162 0.0 0.0 0.00 0.00 0.00 86 1016.1
20260905114346 74 162 0.0 0.0 0.00 0.00 0.00 86 1015.9
20260905113845 74 162 0.0 0.0 0.00 0.00 0.00 86 1015.9
20260905113341 74 162 0.0 0.0 0.00 0.00 0.00 85 1015.8
20260905112836 74 163 0.0 0.0 0.00 0.00 0.00 86 1015.7
20260905112332 74 162 0.0 0.0 0.00 0.00 0.00 85 1015.8
20260905111827 74 162 0.0 0.0 0.00 0.00 0.00 86 1015.8
20260905111326 74 162 0.0 0.0 0.00 0.00 0.00 86 1015.7
20260905110826 74 162 0.0 0.0 0.00 0.00 0.00 85 1015.7
20260905110319 74 162 0.0 0.0 0.00 0.00 0.00 85 1015.6
20260905105815 74 162 0.0 0.0 0.00 0.00 0.00 85 1015.5
20260905105314 74 162 0.0 0.0 0.00 0.00 0.00 85 1015.7
20260905104808 74 162 0.0 0.0 0.00 0.00 0.00 85 1015.4
20260905104306 74 162 0.0 0.0 0.00 0.00 0.00 85 1015.4
20260905103805 74 162 0.0 0.0 0.00 0.00 0.00 85 1015.4
20260905103300 74 162 0.0 0.0 0.00 0.00 0.00 85 1015.4
20260905102756 74 162 0.0 0.0 0.00 0.00 0.00 85 1015.2
20260905102253 74 162 0.0 0.0 0.00 0.00 0.00 85 1015.1
20260905101752 75 162 0.0 0.0 0.00 0.00 0.00 85 1015.3
20260905101251 74 162 0.0 0.0 0.00 0.00 0.00 85 1015.0
20260905100745 74 162 0.0 0.0 0.00 0.00 0.00 85 1015.2
20260905100241 74 162 0.0 0.0 0.00 0.00 0.00 85 1015.2
20260905095741 74 162 0.0 0.0 0.00 0.00 0.00 85 1015.0
20260905095241 74 162 0.0 0.0 0.00 0.00 0.00 85 1015.1
20260905094735 75 162 0.0 0.0 0.00 0.00 0.00 85 1015.2
20260905094230 75 162 0.0 0.0 0.00 0.00 0.00 85 1015.0
20260905093724 75 162 0.0 0.0 0.00 0.00 0.00 85 1015.2
20260905093220 75 162 0.0 0.0 0.00 0.00 0.00 85 1015.2
20260905092716 75 162 0.0 0.0 0.00 0.00 0.00 85 1015.2
20260905092211 75 162 0.0 0.0 0.00 0.00 0.00 85 1015.3
20260905091710 75 162 0.0 0.0 0.00 0.00 0.00 85 1015.1
20260905091206 75 162 0.0 0.0 0.00 0.00 0.00 85 1015.3
20260905090705 75 162 0.0 0.0 0.00 0.00 0.00 85 1015.3
20260905090200 75 162 0.0 0.0 0.00 0.00 0.00 85 1015.3
20260905085659 75 162 0.0 0.0 0.00 0.00 0.00 85 1015.4
20260905085155 75 162 0.0 0.0 0.00 0.00 0.00 85 1015.4
20260905084654 75 162 0.0 0.0 0.00 0.00 0.00 85 1015.4
20260905084149 75 162 0.0 0.0 0.00 0.00 0.00 85 1015.4
20260905083644 75 162 0.0 0.0 0.00 0.00 0.00 85 1015.6
20260905083140 75 162 0.0 0.0 0.00 0.00 0.00 85 1015.6